Fort Peck Lake Weather Center

Moon Phase Calendar



Fort Peck Lake Water Level
Online Cameras

 


      

Current Conditions in Jordan
7/30/2021 7:35:44 PM

93°F
Feels Like 89
Clear
Humidity
20%
Pressure
30"
Wind
11.3 mph (ENE)
Dew Point
46°F
UV Index
0/10 (Low)
Visibility
6 mi

Hourly Forecast

Date & Time Fri, Jul 30
7:00 PM
Fri, Jul 30
8:00 PM
Fri, Jul 30
9:00 PM
Fri, Jul 30
10:00 PM
Fri, Jul 30
11:00 PM
Sat, Jul 31
12:00 AM
Sat, Jul 31
1:00 AM
Sat, Jul 31
2:00 AM
Sat, Jul 31
3:00 AM
Sat, Jul 31
4:00 AM
Sat, Jul 31
5:00 AM
Sat, Jul 31
6:00 AM
Sat, Jul 31
7:00 AM
Sat, Jul 31
8:00 AM
Sat, Jul 31
9:00 AM
Sat, Jul 31
10:00 AM
Sat, Jul 31
11:00 AM
Sat, Jul 31
12:00 PM
Sat, Jul 31
1:00 PM
Sat, Jul 31
2:00 PM
Sat, Jul 31
3:00 PM
Sat, Jul 31
4:00 PM
Sat, Jul 31
5:00 PM
Sat, Jul 31
6:00 PM
Sat, Jul 31
7:00 PM
Sat, Jul 31
8:00 PM
Sat, Jul 31
9:00 PM
Sat, Jul 31
10:00 PM
Sat, Jul 31
11:00 PM
Sun, Aug 1
12:00 AM
Sun, Aug 1
1:00 AM
Sun, Aug 1
2:00 AM
Sun, Aug 1
3:00 AM
Sun, Aug 1
4:00 AM
Sun, Aug 1
5:00 AM
Sun, Aug 1
6:00 AM
Sun, Aug 1
7:00 AM
Sun, Aug 1
8:00 AM
Sun, Aug 1
9:00 AM
Sun, Aug 1
10:00 AM
Sun, Aug 1
11:00 AM
Sun, Aug 1
12:00 PM
Sun, Aug 1
1:00 PM
Sun, Aug 1
2:00 PM
Sun, Aug 1
3:00 PM
Sun, Aug 1
4:00 PM
Sun, Aug 1
5:00 PM
Sun, Aug 1
6:00 PM
Condition
Clear

Clear

Clear

Clouds

Clouds

Clouds

Clear

Clear

Clear

Clear

Clear

Clear

Clear

Clear

Clear

Clear

Clear

Clear

Clear

Clear

Clear

Clear

Clear

Clear

Clear

Clear

Clear

Clear

Clear

Clouds

Clouds

Clouds

Clouds

Clouds

Clouds

Clouds

Clouds

Clouds

Clouds

Clouds

Clouds

Clouds

Clouds

Clouds

Clouds

Clouds

Clouds

Clouds
Temperature 92°F93°F91°F88°F85°F80°F75°F74°F73°F71°F71°F70°F73°F77°F81°F85°F87°F89°F91°F92°F92°F92°F92°F92°F92°F90°F85°F84°F82°F80°F78°F75°F74°F73°F72°F71°F74°F78°F83°F86°F89°F91°F93°F94°F95°F95°F95°F94°F
Feels Like 89°F89°F87°F85°F82°F79°F74°F72°F71°F70°F69°F68°F72°F76°F80°F82°F84°F85°F87°F88°F88°F88°F88°F88°F87°F86°F82°F81°F80°F79°F76°F74°F73°F72°F70°F69°F72°F77°F80°F83°F85°F87°F89°F90°F90°F91°F90°F89°F
Cloudiness 6%6%6%14%20%21%5%3%2%2%4%4%6%5%5%4%4%4%0%0%0%0%0%0%4%4%6%9%10%25%48%26%40%52%44%47%45%27%19%14%12%11%16%12%16%15%14%13%
Visibility 6 mi6 mi6 mi6 mi6 mi6 mi6 mi6 mi6 mi6 mi6 mi6 mi6 mi6 mi6 mi6 mi6 mi6 mi6 mi6 mi6 mi6 mi6 mi6 mi6 mi6 mi6 mi6 mi6 mi6 mi6 mi6 mi6 mi6 mi6 mi6 mi6 mi6 mi6 mi6 mi6 mi6 mi6 mi6 mi6 mi6 mi6 mi6 mi
Precipitation 0%0%0%0%0%0%0%0%0%0%0%0%0%0%0%0%0%0%0%0%0%0%0%0%0%0%0%0%0%0%0%0%0%0%0%0%0%0%0%0%0%0%0%0%0%0%0%0%
Humidity 19%20%21%22%24%27%30%32%34%35%36%37%33%28%25%22%19%19%18%17%17%16%16%16%16%18%20%21%24%26%28%29%29%29%30%31%28%23%20%18%16%15%15%14%13%13%12%13%
Dew Point 44°F46°F46°F45°F44°F43°F42°F42°F42°F42°F42°F42°F43°F42°F42°F41°F41°F41°F41°F41°F41°F41°F40°F39°F39°F41°F40°F40°F41°F42°F41°F41°F40°F39°F39°F39°F39°F38°F38°F38°F38°F38°F38°F37°F37°F36°F36°F35°F
Pressure 30"30"30"30.03"30.06"30.06"30.12"30.12"30.12"30.15"30.15"30.18"30.18"30.18"30.18"30.18"30.18"30.15"30.15"30.12"30.12"30.09"30.09"30.06"30.06"30.06"30.06"30.09"30.12"30.12"30.15"30.15"30.15"30.15"30.15"30.15"30.15"30.15"30.12"30.12"30.09"30.09"30.06"30.03"30"30"29.97"29.97"
Wind Speed 9.8 mph11.3 mph11 mph10.8 mph9.6 mph8 mph5.9 mph4.8 mph4.5 mph4.3 mph4.3 mph4.2 mph3.5 mph4.7 mph5.5 mph5.7 mph6.3 mph8 mph9.6 mph10.8 mph10.5 mph10.1 mph8.2 mph5.1 mph3.4 mph4.3 mph4.4 mph5 mph14.6 mph12 mph8.6 mph7.6 mph7 mph6.6 mph5.9 mph5.1 mph5.3 mph7.5 mph7.7 mph7.2 mph7.3 mph7.1 mph6.8 mph8.8 mph11.1 mph12.3 mph12.6 mph12.5 mph
Wind
Direction
79°
E
73°
ENE
65°
ENE
73°
ENE
78°
ENE
86°
E
97°
E
108°
ESE
126°
SE
140°
SE
131°
SE
126°
SE
108°
ESE
111°
ESE
120°
ESE
113°
ESE
100°
E
83°
E
72°
ENE
65°
ENE
62°
ENE
64°
ENE
72°
ENE
96°
E
136°
SE
166°
SSE
170°
S
112°
ESE
89°
E
103°
ESE
116°
ESE
142°
SE
149°
SSE
152°
SSE
141°
SE
115°
ESE
118°
ESE
131°
SE
133°
SE
125°
SE
109°
ESE
98°
E
84°
E
67°
ENE
62°
ENE
61°
ENE
62°
ENE
64°
ENE

Daily Forecast

Date High Low Precip. Humidity
Today
Jul 30

Clear
93 °F
68 °F
7%
27%
Saturday
Jul 31

Clear
92 °F
70 °F
0%
18%
Sunday
Aug 1

Clouds
95 °F
71 °F
0%
15%
Monday
Aug 2

Clouds
97 °F
72 °F
0%
13%
Tuesday
Aug 3

Clouds
94 °F
74 °F
0%
15%
Wednesday
Aug 4

Clear
100 °F
78 °F
0%
16%
Thursday
Aug 5

Rain
96 °F
74 °F
69%
17%
Friday
Aug 6

Rain
90 °F
70 °F
75%
28%
Saturday
Aug 7

Clouds
105 °F
71 °F
0%
15%
Sunday
Aug 8

Clouds
83 °F
68 °F
0%
28%
Monday
Aug 9

Clouds
84 °F
62 °F
0%
24%
Tuesday
Aug 10

Rain
76 °F
67 °F
33%
41%
Wednesday
Aug 11

Clouds
84 °F
62 °F
0%
24%
Thursday
Aug 12

Clear
87 °F
59 °F
0%
22%
Friday
Aug 13

Clouds
81 °F
68 °F
0%
30%
Saturday
Aug 14

Clear
90 °F
58 °F
0%
15%

Temperature 8-14 Day Outlook



Precipitation 8-14 Day Outlook




Quick Links
Fort Peck Lake News
Fort Peck Lake Photos
Fort Peck Lake Videos




About Us
Contact Us
Site Map
Search Site
Advertise With Us
   
FortPeck.USLakes.info
THE FORT PECK LAKE WEBSITE

Copyright 2021, Lakes Online
Privacy    |    Legal